Flag for Cook Islands Weather past 2 weeks in Rarotonga, Cook Islands

Now
88 °F

Scattered clouds.


Feels Like: 102 °F
Forecast: 76 / 84 °F
Wind: 5 mph from North

Location: Rarotonga

Current Time: Mar 6, 2015 at 3:42:16 PM

Latest Report: Mar 6, 2015 at 3:00 PM


Visibility: N/A

Pressure: 29.71 "Hg

Humidity: 75%

Dew point: 79 °F

Location of RarotongaLocation

Historic Weather in Rarotonga — Graph

°F

Rarotonga temperature yesterday

Maximum temperature yesterday: 86 °F (at 2:00 PM)
Minimum temperature yesterday: 79 °F (at 12:00 AM)
Average temperature yesterday: 80 °F

Past Weeks' High & Low Weather Summary

 TemperatureHumidityPressure
High91 °F (Feb 19, 2:00 PM)94% (Feb 19, 7:00 PM)30.04 "Hg (Feb 19, 7:00 PM)
Low73 °F (Mar 3, 5:00 AM)66% (Feb 24, 3:00 PM)29.24 "Hg (Feb 24, 6:00 PM)
Average81 °F83%29.85 "Hg
* Reported Feb 19 2:00 PM — Mar 6 2:00 PM, Rarotonga, Weather by CustomWeather, © 2015

Note: Actual official high and low records may vary slightly from our data, if they occured in-between our weather recording intervals... More about our weather records

Advertising

Rarotonga weather history for previous 24 hours

 ConditionsComfort  
Time TempWeatherWind HumidityBarometerVisibility
2:00 PM
Fri, Mar 6
86 °FScattered clouds.5 mph79%29.74 "HgN/A
1:00 PM86 °FScattered clouds.8 mph79%29.74 "HgN/A
12:00 PM86 °FScattered clouds.9 mph70%29.77 "HgN/A
11:00 AM84 °FScattered clouds.9 mph74%29.77 "HgN/A
10:00 AM82 °FScattered clouds.9 mph84%29.80 "HgN/A
9:00 AM82 °FScattered clouds.10 mph84%29.77 "HgN/A
8:00 AM79 °FScattered clouds.7 mph89%29.77 "HgN/A
7:00 AM79 °FScattered clouds.3 mph89%29.77 "HgN/A
6:00 AM79 °FPassing clouds.3 mph89%29.77 "HgN/A
5:00 AM79 °FPassing clouds.2 mph89%29.77 "HgN/A
4:00 AM79 °FPassing clouds.2 mph94%29.77 "HgN/A
3:00 AM79 °FPassing clouds.6 mph94%29.77 "HgN/A
2:00 AM79 °FPassing clouds.7 mph94%29.80 "HgN/A
1:00 AM81 °FPartly cloudy.7 mph89%29.80 "HgN/A
12:00 AM79 °FPassing clouds.6 mph94%29.80 "HgN/A
11:00 PM
Thu, Mar 5
81 °FPartly cloudy.6 mph89%29.83 "HgN/A
10:00 PM79 °FPartly cloudy.7 mph94%29.83 "HgN/A
9:00 PM79 °FPartly cloudy.6 mph94%29.80 "HgN/A
8:00 PM79 °FPartly cloudy.6 mph94%29.80 "HgN/A
7:00 PM81 °FBroken clouds.6 mph89%29.77 "HgN/A
6:00 PM82 °FBroken clouds.6 mph84%29.77 "HgN/A
5:00 PM82 °FBroken clouds.6 mph89%29.77 "HgN/A
4:00 PM82 °FBroken clouds.7 mph84%29.77 "HgN/A
3:00 PM84 °FPartly sunny.10 mph79%29.77 "HgN/A
Weather by CustomWeather, © 2015

See weather overviewHow to use our weather pages